This demonstration page uses our WeatherBlox Daily Observations layout. Learn more.

38.89511, -77.03637

Hourly Observations for March 9, 2015

Temp ( °F °C ) Dew Point ( °F °C ) Humidity (%) Winds ( mph kmh ) Pressure ( in mb ) Visibility ( mi km ) Precip ( " mm )
12:52 am 00:52 Cloudy 39 3.9 29 -1.7 67 67 Calm 30.18 1022 10 16.0934 0 0
1:52 am 01:52 Clear 39 3.9 30 -1.1 70 70 Calm 30.16 1021 10 16.0934 0 0
2:52 am 02:52 Cloudy 38 3.3 29 -1.7 70 70 NNE 3 6 30.16 1021 10 16.0934 0 0
3:52 am 03:52 Cloudy 38 3.3 29 -1.7 70 70 Calm 30.14 1021 10 16.0934 0 0
4:52 am 04:52 Cloudy 37 2.8 29 -1.7 73 73 N 3 6 30.13 1020 10 16.0934 0 0
5:52 am 05:52 Cloudy 39 3.9 29 -1.7 67 67 Calm 30.15 1021 10 16.0934 0 0
6:52 am 06:52 Cloudy 38 3.3 29 -1.7 70 70 N 5 7 30.17 1022 10 16.0934 0 0
7:52 am 07:52 Cloudy 39 3.9 29 -1.7 67 67 N 3 6 30.19 1022 10 16.0934 0 0
8:52 am 08:52 Cloudy 39 3.9 30 -1.1 70 70 N 5 7 30.21 1023 10 16.0934 0 0
9:52 am 09:52 Cloudy 44 6.7 30 -1.1 58 58 Calm 30.23 1024 10 16.0934 0 0
10:52 am 10:52 Mostly Cloudy 50 10 31 -0.6 48 48 Calm 30.24 1024 10 16.0934 0 0
11:52 am 11:52 Mostly Cloudy 54 12.2 30 -1.1 40 40 Calm 30.23 1024 10 16.0934 0 0
12:52 pm 12:52 Partly Cloudy 59 15 29 -1.7 32 32 ENE 3 6 30.23 1024 10 16.0934 0 0
1:52 pm 13:52 Partly Cloudy 61 16.1 31 -0.6 32 32 ENE 3 6 30.21 1023 10 16.0934 0 0
2:52 pm 14:52 Mostly Cloudy 59 15 30 -1 34 34 SSE 5 7 30.18 1022 10 16.0934 0 0
3:52 pm 15:52 Mostly Cloudy 62 16.7 31 -0.6 31 31 Calm 30.17 1022 10 16.0934 0 0
4:52 pm 16:52 Mostly Cloudy 60 15.6 32 0 35 35 S 9 15 30.18 1022 10 16.0934 0 0
5:52 pm 17:52 Mostly Cloudy 58 14.4 32 0 38 38 S 10 17 30.18 1022 10 16.0934 0 0
6:52 pm 18:52 Mostly Cloudy 58 14.4 30 -1.1 35 35 S 6 9 30.19 1022 10 16.0934 0 0
7:52 pm 19:52 Partly Cloudy 54 12.2 30 -1.1 40 40 S 3 6 30.2 1023 10 16.0934 0 0
8:52 pm 20:52 Partly Cloudy 54 12.2 31 -0.6 42 42 Calm 30.22 1023 10 16.0934 0 0
9:52 pm 21:52 Partly Cloudy 50 10 31 -0.6 48 48 NNE 3 6 30.24 1024 10 16.0934 0 0
10:52 pm 22:52 Mostly Cloudy 48 8.9 31 -0.6 52 52 ENE 6 9 30.25 1024 10 16.0934 0 0
11:52 pm 23:52 Mostly Cloudy 46 7.8 31 -0.6 56 56 ENE 3 6 30.26 1025 10 16.0934 0 0

Powered by AerisWeather